DRAGON CRS-13 DEB (43062 NORAD) Tracking and Keplerian Element Data

This shows tracking and keplerian element data for the satellite.

Feedback or suggestion? Click here.




ElementValue
Catalog43062
NameDRAGON CRS-13 DEB
Epoch Orbit68
Epoch Day353.8739312
Epoch Year2017
RAAN191.2243
Inclination51.6463
Eccentricity0.0043204
Argument of Perigee63.324
Mean Anonmoly297.8194
Mean Motion16.26136877
Decay Rate0.0835961
L11 43062U 17080C 17353.87393120 .08359610 12257-4 19425-2 0 9999
L22 43062 51.6463 191.2243 0043204 63.3240 297.8194 16.26136877 686

Live tracking and technical data element details for DRAGON CRS-13 DEB (NORAD 43062). DRAGON CRS-13 DEB can be tracked NOW for your location showing map with azimuth and elevation plus other details from your city location.

Track the satellite on the map from your city or location and see movement details for azimuth, elevation, latitude, longitude, range, height, and movement on the map or in text.







IsCatalogInMostPopularTable: catalog: 43062, numindb: 121
Update: records affected: 1



GetName: 43062 DRAGON CRS-13 DEB

Hit Count: updated at: Mon, 19 Nov 2018 13:16:50 GMT